Lapse_Rate
5.3 5.4 5.5 5.3 5.1 5.2 5.2 5.3 5.3 5.3 5.2 5.0 5.1 4.9 4.8 4.7 4.7 4.6 4.6 4.9 4.6 5.0 4.9 4.6 4.4 4.2 4.7
5.3 5.5 5.4 5.3 5.3 5.3 5.3 5.4 5.3 5.3 5.1 5.1 4.9 4.8 4.7 4.7 4.7 4.6 4.8 4.9 4.8 4.9 4.6 4.3 4.6 4.5 4.6
5.2 5.3 5.3 5.3 5.3 5.4 5.4 5.4 5.5 5.5 5.2 5.1 4.7 4.7 4.7 4.9 4.7 4.6 4.8 4.9 4.8 4.9 4.7 4.5 4.5 4.6 4.7
5.3 5.3 5.3 5.3 5.2 5.4 5.5 5.6 5.6 5.4 5.3 5.0 4.9 4.7 4.6 4.9 4.8 4.8 4.9 4.9 4.9 4.7 4.5 4.7 4.5 4.6 4.7
5.3 5.4 5.4 5.2 5.2 5.3 5.7 5.6 5.4 5.2 5.2 5.1 4.8 4.8 5.1 5.0 4.8 4.9 5.1 4.9 4.8 4.6 4.6 4.6 4.5 4.8 4.9
5.2 5.2 5.0 5.2 5.3 5.3 5.5 5.3 5.1 5.0 4.9 4.7 4.8 4.9 4.8 5.0 4.8 5.0 5.0 5.0 4.8 4.8 4.7 4.5 4.8 4.9 4.9
5.4 5.1 5.1 5.2 5.4 5.4 5.3 5.2 5.2 4.9 4.8 4.7 4.8 4.9 4.9 4.8 4.9 5.2 5.2 5.1 4.9 5.0 4.7 4.9 5.0 5.0 4.7
5.1 4.9 4.9 5.1 5.2 5.3 5.2 5.2 4.9 4.6 4.6 4.9 4.7 4.7 4.7 5.1 5.2 5.4 5.3 5.1 5.0 4.9 5.0 5.3 5.3 4.9 4.3
4.7 4.8 4.9 5.0 5.2 5.1 4.7 4.9 5.0 5.0 5.0 4.7 4.5 4.5 4.9 5.2 5.4 5.3 5.3 5.1 4.9 5.1 5.2 5.6 5.3 4.6 4.1
4.7 4.8 4.9 4.9 5.0 4.8 4.7 5.1 5.0 5.0 4.8 4.7 4.5 4.6 5.2 5.4 5.4 5.3 5.1 5.0 5.1 5.3 5.3 5.2 4.8 4.4 4.3
4.8 4.5 4.6 4.8 4.8 4.6 4.3 4.7 5.0 5.0 4.9 4.8 4.7 4.9 5.2 5.4 5.4 5.1 5.0 5.0 5.2 5.2 5.1 4.8 4.5 4.4 4.0
4.4 4.4 4.4 4.6 4.4 4.5 4.8 4.6 5.1 5.0 5.0 4.9 4.8 4.9 5.3 5.4 5.4 5.0 5.1 5.2 5.1 5.3 5.0 4.8 4.3 3.9 3.7
4.3 4.3 4.0 3.7 4.0 4.2 4.3 4.7 5.4 5.2 4.9 4.8 4.6 5.2 5.4 5.4 5.3 5.1 5.2 5.1 5.2 5.3 5.0 4.6 4.3 3.9 4.0
3.7 3.7 3.8 4.3 3.7 4.2 4.4 5.2 5.3 5.0 4.8 4.7 4.9 5.3 5.4 5.5 5.2 5.2 5.3 5.3 5.4 5.2 4.7 4.3 4.0 3.9 3.8
3.8 3.6 3.8 3.9 3.9 4.1 4.7 5.4 5.1 4.9 4.7 4.9 5.2 5.5 5.4 5.5 5.3 5.3 5.3 5.4 5.5 5.4 4.6 4.1 3.9 4.0 3.7
3.8 3.8 4.0 3.9 4.2 4.8 5.1 5.2 4.8 4.8 4.9 4.9 5.2 5.5 5.5 5.3 5.3 5.4 5.4 5.5 5.5 5.3 4.8 4.5 4.1 3.9 3.6
3.9 4.0 4.2 4.4 4.9 5.1 5.0 5.0 5.0 4.9 4.9 5.1 5.2 5.5 5.4 5.3 5.3 5.4 5.4 5.5 5.4 5.1 4.8 4.6 4.5 3.9 3.8
Wind_Speed
5 13 14 14 12 10 11 8 9 8 7 6 6 4 3 3 5 7 8 10 11 13 13 15 18 20 20
9 8 10 15 14 13 11 8 7 8 6 6 5 4 2 1 3 6 8 9 10 12 14 16 17 19 21
7 8 8 14 12 11 10 9 7 8 7 6 6 4 1 1 2 4 7 9 10 12 13 15 18 20 21
7 10 9 12 10 8 7 9 7 8 6 4 4 4 2 2 1 3 6 8 10 13 13 15 18 21 22
9 9 9 10 11 8 7 6 6 8 8 7 7 6 6 4 1 1 5 8 10 13 13 16 20 21 22
8 9 11 10 10 9 8 8 4 9 6 5 6 6 5 5 2 1 3 7 10 13 13 17 21 22 23
10 10 11 12 12 12 10 8 3 5 6 4 5 4 6 5 4 2 2 6 10 11 12 19 22 23 24
7 8 9 18 16 12 10 8 7 6 3 2 3 2 4 5 6 6 3 6 9 10 12 19 21 23 24
9 13 16 22 21 16 8 7 3 3 5 1 2 2 2 2 2 8 4 6 9 10 15 18 20 23 19
14 16 16 17 17 10 8 6 4 2 5 4 3 2 2 1 1 2 5 6 8 10 17 19 20 19 18
9 8 12 12 8 9 8 5 3 2 6 4 2 2 1 1 1 1 4 7 7 11 15 17 20 17 16
8 7 6 6 10 12 12 11 10 7 12 4 2 2 2 1 0 2 4 4 7 13 14 17 17 17 16
8 7 5 11 15 14 15 18 15 12 7 4 5 4 2 1 1 1 3 3 7 13 15 16 16 16 14
9 8 12 9 6 9 6 5 6 5 7 6 5 2 2 1 1 1 1 3 9 12 16 14 16 15 14
9 9 8 7 6 8 7 5 3 5 3 2 2 4 1 1 1 1 2 3 8 11 12 9 16 15 15
8 8 8 7 7 5 5 4 6 5 3 2 2 3 2 2 1 1 2 4 8 10 10 8 8 17 16
9 8 7 6 9 6 5 6 6 5 4 2 1 2 2 1 2 2 3 5 5 6 7 7 8 12 19
Wind_Direction
133 166 166 163 162 166 160 161 157 154 146 141 128 121 111 75 44 24 24 17 11 7 2 359 359 356 351
149 163 171 172 168 167 166 168 166 165 157 154 153 136 128 69 26 21 20 15 3 3 359 356 352 350 349
142 158 160 167 167 166 169 170 168 158 167 170 168 138 149 200 25 19 19 1 359 357 353 352 349 347 345
142 159 159 173 174 169 172 184 171 171 174 177 165 138 202 213 43 22 9 352 354 353 349 346 344 345 342
149 158 169 172 186 179 178 172 175 191 186 186 193 204 221 223 211 70 2 349 351 350 343 342 343 341 338
166 177 179 179 177 171 165 167 191 197 198 191 201 214 222 221 179 107 3 354 353 347 341 342 341 338 337
170 177 169 176 163 173 174 174 151 150 189 184 188 227 218 215 194 204 352 349 351 345 341 339 337 337 335
166 163 163 166 171 166 156 125 104 123 179 184 169 206 200 210 207 217 225 342 340 345 344 340 340 336 333
113 135 146 157 155 141 153 148 126 156 173 222 159 190 208 218 238 213 247 303 332 339 337 342 345 338 333
103 102 123 139 152 164 154 145 125 130 167 190 171 201 184 135 196 225 266 266 326 330 339 340 343 340 332
116 113 119 129 114 109 108 124 112 102 160 153 160 170 133 184 173 264 276 324 329 334 339 336 338 342 336
118 123 125 124 103 97 96 85 71 108 146 153 131 160 159 141 248 224 303 333 332 337 338 333 338 340 340
128 128 123 124 116 106 101 96 90 86 91 89 114 132 128 105 275 316 336 327 335 338 340 338 334 334 331
136 124 133 132 137 138 118 114 104 94 69 76 88 117 104 207 269 308 351 332 336 336 332 331 331 329 327
136 143 141 134 135 138 123 136 140 143 144 131 57 84 80 135 183 229 341 337 342 334 333 327 325 321 330
133 142 138 145 146 142 126 135 137 141 154 144 119 149 159 112 3 181 343 340 335 329 322 317 311 320 329
140 142 139 143 149 140 137 139 130 138 130 127 115 180 177 185 129 213 351 333 328 327 328 315 309 306 321